Alexandria Esle, LA

8:27 AM CDT on April 30, 2017 (GMT -0500)
Alexandria Esler Regional

Weather History for KESF - November, 2012

Change the Weather History Date:

Tuesday, November 20, 2012

  Actual Average Record
Temperature  
Mean Temperature 59 °F -  
Max Temperature 75 °F 67 °F 81 °F (2011)
Min Temperature 43 °F 43 °F 25 °F (1969)
Degree Days  
Heating Degree Days 6    
Growing Degree Days 9 (Base 50)    
Moisture  
Dew Point 46 °F    
Average Humidity 72    
Maximum Humidity 93    
Minimum Humidity 32    
Precipitation  
Precipitation 0.00 in - - ()
Sea Level Pressure  
Sea Level Pressure 30.18 in    
Wind  
Wind Speed 0 mph (West)    
Max Wind Speed 5 mph    
Max Gust Speed -    
Visibility 9 miles    
Events      
Averages and records for this station are not official NWS values.
T = Trace of Precipitation, MM = Missing Value Source: NWS Daily Summary

Daily Weather History Graph

Daily Weather History Graph

Search for Another Location

Airport or City:

Trip Planner

Search our weather history database for the weather conditions in past years. The results will help you decide how hot, cold, wet, or windy it might be!

Date:

Astronomy

Nov. 20, 2012 Rise Set
Actual Time 6:41 AM CST 5:08 PM CST
Civil Twilight 6:15 AM CST 5:34 PM CST
Nautical Twilight 5:46 AM CST 6:03 PM CST
Astronomical Twilight 5:16 AM CST 6:32 PM CST
Moon 12:29 PM CST (11/20) No Moon Set
Length of Visible Light 11h 18m
Length of Day
10h 26m
First Quarter, 51% of the Moon is Illuminated
Nov 20
First Quarter
Nov 28
Full
Dec 6
Last Quarter
Dec 13
New
Dec 19
First Quarter

Hourly Weather History & Observations

Time (CST) Temp. Dew Point Humidity Pressure Visibility Wind Dir Wind Speed Gust Speed Precip Events Conditions
12:53 AM 46.0 °F 43.0 °F 89% 30.19 in 9.0 mi Calm Calm - N/A   Clear
1:53 AM 44.1 °F 42.1 °F 93% 30.19 in 8.0 mi Calm Calm - N/A   Clear
2:53 AM 43.0 °F 41.0 °F 93% 30.18 in 6.0 mi Calm Calm - N/A   Mostly Cloudy
3:53 AM 45.0 °F 42.1 °F 90% 30.19 in 10.0 mi Calm Calm - N/A   Mostly Cloudy
4:53 AM 45.0 °F 42.1 °F 90% 30.19 in 10.0 mi Calm Calm - N/A   Clear
5:53 AM 45.0 °F 43.0 °F 93% 30.20 in 10.0 mi Calm Calm - N/A   Clear
6:53 AM 46.0 °F 43.0 °F 89% 30.20 in 10.0 mi Calm Calm - N/A   Partly Cloudy
7:53 AM 50.0 °F 46.0 °F 86% 30.22 in 10.0 mi Calm Calm - N/A   Mostly Cloudy
8:53 AM 57.0 °F 48.0 °F 72% 30.23 in 10.0 mi Calm Calm - N/A   Partly Cloudy
9:53 AM 66.0 °F 48.9 °F 54% 30.24 in 10.0 mi Calm Calm - N/A   Partly Cloudy
10:53 AM 73.0 °F 46.0 °F 38% 30.22 in 10.0 mi Variable 3.5 mph - N/A   Partly Cloudy
11:53 AM 73.0 °F 44.1 °F 35% 30.19 in 10.0 mi Calm Calm - N/A   Clear
12:53 PM 73.9 °F 45.0 °F 35% 30.16 in 10.0 mi Variable 4.6 mph - N/A   Mostly Cloudy
1:53 PM 75.9 °F 44.1 °F 32% 30.14 in 10.0 mi Calm Calm - N/A   Clear
2:53 PM 75.0 °F 46.9 °F 37% 30.14 in 10.0 mi West 4.6 mph - N/A   Clear
3:53 PM 75.9 °F 48.0 °F 37% 30.13 in 10.0 mi Calm Calm - N/A   Clear
4:53 PM 68.0 °F 52.0 °F 56% 30.13 in 10.0 mi Calm Calm - N/A   Clear
5:53 PM 60.1 °F 52.0 °F 75% 30.14 in 10.0 mi Calm Calm - N/A   Clear
6:53 PM 55.9 °F 51.1 °F 84% 30.15 in 10.0 mi Calm Calm - N/A   Clear
7:53 PM 53.1 °F 50.0 °F 89% 30.17 in 9.0 mi Calm Calm - N/A   Clear
8:53 PM 52.0 °F 48.9 °F 89% 30.19 in 8.0 mi Calm Calm - N/A   Clear
9:53 PM 48.9 °F 46.9 °F 93% 30.19 in 4.0 mi Calm Calm - N/A   Clear
10:53 PM 48.0 °F 46.0 °F 93% 30.19 in 5.0 mi Calm Calm - N/A   Clear
11:53 PM 48.0 °F 45.0 °F 89% 30.18 in 4.0 mi Calm Calm - N/A   Clear